Location: Beugnon
(47.6222°N, 3.7850°E)
Time: 13:55:49
(UTC+00:00)

MetOp-A - Visible Passes

Search period start: 06 August 2020 00:00
Search period end: 16 August 2020 00:00
Orbit: 819 x 821 km, 98.5° (Epoch: 06 August)

Date Brightness Start Highest point End Pass type
(mag) Time Alt. Az. Time Alt. Az. Time Alt. Az.
06 Aug 4.5 19:51:55 10° S 19:57:15 71° WSW 20:02:38 10° NNW visible
06 Aug 7.0 21:37:52 10° W 21:38:20 10° W 21:38:48 10° W visible
07 Aug 6.6 21:14:05 10° SW 21:17:17 16° W 21:20:29 10° NW visible
08 Aug 6.2 20:52:04 10° SW 20:56:18 23° W 21:00:33 10° NW visible
09 Aug 5.6 20:30:33 10° SSW 20:35:23 34° W 20:40:16 10° NNW visible
10 Aug 5.0 20:09:20 10° S 20:14:32 51° W 20:19:46 10° NNW visible
11 Aug 4.4 19:48:25 10° S 19:53:45 75° WSW 19:59:08 10° NNW visible
11 Aug 6.9 21:33:25 10° W 21:34:47 11° W 21:36:09 10° WNW visible
12 Aug 4.2 19:27:42 10° SSE 19:33:02 76° ENE 19:38:24 10° NNW visible
12 Aug 6.6 21:10:21 10° SW 21:13:44 17° W 21:17:09 10° NW visible
13 Aug 6.1 20:48:25 10° SSW 20:52:46 25° W 20:57:08 10° NW visible
14 Aug 5.5 20:26:58 10° SSW 20:31:52 36° W 20:36:48 10° NNW visible
15 Aug 4.9 20:05:48 10° S 20:11:02 54° W 20:16:18 10° NNW visible
